Year,Month,Day,Hour,Minute,Value (Times are PST for temperature in C)
2019,07,26,00,00,14.80
2019,07,26,00,01,14.80
2019,07,26,00,02,14.70
2019,07,26,00,03,14.70
2019,07,26,00,04,14.70
2019,07,26,00,05,14.70
2019,07,26,00,06,14.70
2019,07,26,00,07,14.70
2019,07,26,00,08,14.70
2019,07,26,00,09,14.60
2019,07,26,00,10,14.60
2019,07,26,00,11,14.60
2019,07,26,00,12,14.60
2019,07,26,00,13,14.60
2019,07,26,00,14,14.60
2019,07,26,00,15,14.50
2019,07,26,00,16,14.50
2019,07,26,00,17,14.50
2019,07,26,00,18,14.50
2019,07,26,00,19,14.40
2019,07,26,00,20,14.40
2019,07,26,00,21,14.40
2019,07,26,00,22,14.40
2019,07,26,00,23,14.40
2019,07,26,00,24,14.40
2019,07,26,00,25,14.40
2019,07,26,00,26,14.40
2019,07,26,00,27,14.40
2019,07,26,00,28,14.40
2019,07,26,00,29,14.40
2019,07,26,00,30,14.40
2019,07,26,00,31,14.40
2019,07,26,00,32,14.40
2019,07,26,00,33,14.40
2019,07,26,00,34,14.40
2019,07,26,00,35,14.30
2019,07,26,00,36,14.30
2019,07,26,00,37,14.30
2019,07,26,00,38,14.30
2019,07,26,00,39,14.30
2019,07,26,00,40,14.30
2019,07,26,00,41,14.30
2019,07,26,00,42,14.30
2019,07,26,00,43,14.30
2019,07,26,00,44,14.30
2019,07,26,00,45,14.30
2019,07,26,00,46,14.30
2019,07,26,00,47,14.30
2019,07,26,00,48,14.30
2019,07,26,00,49,14.30
2019,07,26,00,50,14.30
2019,07,26,00,51,14.30
2019,07,26,00,52,14.30
2019,07,26,00,53,14.30
2019,07,26,00,54,14.30
2019,07,26,00,55,14.30
2019,07,26,00,56,14.30
2019,07,26,00,57,14.30
2019,07,26,00,58,14.30
2019,07,26,00,59,14.30
2019,07,26,01,00,14.30
2019,07,26,01,01,14.30
2019,07,26,01,02,14.40
2019,07,26,01,03,14.40
2019,07,26,01,04,14.40
2019,07,26,01,05,14.40
2019,07,26,01,06,14.40
2019,07,26,01,07,14.40
2019,07,26,01,08,14.30
2019,07,26,01,09,14.40
2019,07,26,01,10,14.30
2019,07,26,01,11,14.30
2019,07,26,01,12,14.30
2019,07,26,01,13,14.30
2019,07,26,01,14,14.30
2019,07,26,01,15,14.30
2019,07,26,01,16,14.30
2019,07,26,01,17,14.30
2019,07,26,01,18,14.30
2019,07,26,01,19,14.30
2019,07,26,01,20,14.30
2019,07,26,01,21,14.30
2019,07,26,01,22,14.30
2019,07,26,01,23,14.30
2019,07,26,01,24,14.30
2019,07,26,01,25,14.30
2019,07,26,01,26,14.30
2019,07,26,01,27,14.30
2019,07,26,01,28,14.30
2019,07,26,01,29,14.30
2019,07,26,01,30,14.30
2019,07,26,01,31,14.30
2019,07,26,01,32,14.30
2019,07,26,01,33,14.30
2019,07,26,01,34,14.30
2019,07,26,01,35,14.30
2019,07,26,01,36,14.20
2019,07,26,01,37,14.20
2019,07,26,01,38,14.20
2019,07,26,01,39,14.20
2019,07,26,01,40,14.20
2019,07,26,01,41,14.20
2019,07,26,01,42,14.20
2019,07,26,01,43,14.20
2019,07,26,01,44,14.20
2019,07,26,01,45,14.10
2019,07,26,01,46,14.10
2019,07,26,01,47,14.10
2019,07,26,01,48,14.10
2019,07,26,01,49,14.10
2019,07,26,01,50,14.10
2019,07,26,01,51,14.20
2019,07,26,01,52,14.20
2019,07,26,01,53,14.20
2019,07,26,01,54,14.20
2019,07,26,01,55,14.20
2019,07,26,01,56,14.20
2019,07,26,01,57,14.20
2019,07,26,01,58,14.20
2019,07,26,01,59,14.20
2019,07,26,02,00,14.20
2019,07,26,02,01,14.10
2019,07,26,02,02,14.10
2019,07,26,02,03,14.10
2019,07,26,02,04,14.10
2019,07,26,02,05,14.10
2019,07,26,02,06,14.10
2019,07,26,02,07,14.10
2019,07,26,02,08,14.10
2019,07,26,02,09,14.00
2019,07,26,02,10,14.00
2019,07,26,02,11,14.00
2019,07,26,02,12,14.00
2019,07,26,02,13,14.00
2019,07,26,02,14,14.00
2019,07,26,02,15,14.00
2019,07,26,02,16,14.00
2019,07,26,02,17,14.00
2019,07,26,02,18,14.10
2019,07,26,02,19,14.10
2019,07,26,02,20,14.10
2019,07,26,02,21,14.10
2019,07,26,02,22,14.10
2019,07,26,02,23,14.20
2019,07,26,02,24,14.20
2019,07,26,02,25,14.20
2019,07,26,02,26,14.20
2019,07,26,02,27,14.20
2019,07,26,02,28,14.20
2019,07,26,02,29,14.20
2019,07,26,02,30,14.20
2019,07,26,02,31,14.20
2019,07,26,02,32,14.10
2019,07,26,02,33,14.10
2019,07,26,02,34,14.10
2019,07,26,02,35,14.10
2019,07,26,02,36,14.10
2019,07,26,02,37,14.00
2019,07,26,02,38,14.00
2019,07,26,02,39,14.00
2019,07,26,02,40,14.00
2019,07,26,02,41,14.00
2019,07,26,02,42,14.00
2019,07,26,02,43,14.00
2019,07,26,02,44,14.00
2019,07,26,02,45,14.00
2019,07,26,02,46,14.00
2019,07,26,02,47,14.10
2019,07,26,02,48,14.10
2019,07,26,02,49,14.10
2019,07,26,02,50,14.10
2019,07,26,02,51,14.10
2019,07,26,02,52,14.10
2019,07,26,02,53,14.10
2019,07,26,02,54,14.10
2019,07,26,02,55,14.10
2019,07,26,02,56,14.10
2019,07,26,02,57,14.10
2019,07,26,02,58,14.10
2019,07,26,02,59,14.10
2019,07,26,03,00,14.10
2019,07,26,03,01,14.10
2019,07,26,03,02,14.10
2019,07,26,03,03,14.00
2019,07,26,03,04,14.00
2019,07,26,03,05,14.00
2019,07,26,03,06,14.00
2019,07,26,03,07,14.00
2019,07,26,03,08,13.90
2019,07,26,03,09,13.90
2019,07,26,03,10,13.90
2019,07,26,03,11,13.90
2019,07,26,03,12,13.90
2019,07,26,03,13,13.90
2019,07,26,03,14,13.90
2019,07,26,03,15,13.90
2019,07,26,03,16,13.90
2019,07,26,03,17,13.90
2019,07,26,03,18,13.90
2019,07,26,03,19,14.00
2019,07,26,03,20,14.00
2019,07,26,03,21,14.00
2019,07,26,03,22,14.00
2019,07,26,03,23,14.10
2019,07,26,03,24,14.10
2019,07,26,03,25,14.10
2019,07,26,03,26,14.20
2019,07,26,03,27,14.20
2019,07,26,03,28,14.30
2019,07,26,03,29,14.30
2019,07,26,03,30,14.30
2019,07,26,03,31,14.40
2019,07,26,03,32,14.40
2019,07,26,03,33,14.50
2019,07,26,03,34,14.50
2019,07,26,03,35,14.60
2019,07,26,03,36,14.70
2019,07,26,03,37,14.70
2019,07,26,03,38,14.70
2019,07,26,03,39,14.70
2019,07,26,03,40,14.80
2019,07,26,03,41,14.80
2019,07,26,03,42,14.80
2019,07,26,03,43,14.80
2019,07,26,03,44,14.80
2019,07,26,03,45,14.80
2019,07,26,03,46,14.80
2019,07,26,03,47,14.80
2019,07,26,03,48,14.80
2019,07,26,03,49,14.80
2019,07,26,03,50,14.70
2019,07,26,03,51,14.70
2019,07,26,03,52,14.60
2019,07,26,03,53,14.60
2019,07,26,03,54,14.50
2019,07,26,03,55,14.50
2019,07,26,03,56,14.40
2019,07,26,03,57,14.40
2019,07,26,03,58,14.30
2019,07,26,03,59,14.30
2019,07,26,04,00,14.20
2019,07,26,04,01,14.20
2019,07,26,04,02,14.10
2019,07,26,04,03,14.10
2019,07,26,04,04,14.00
2019,07,26,04,05,14.00
2019,07,26,04,06,13.90
2019,07,26,04,07,13.90
2019,07,26,04,08,13.80
2019,07,26,04,09,13.80
2019,07,26,04,10,13.80
2019,07,26,04,11,13.80
2019,07,26,04,12,13.70
2019,07,26,04,13,13.70
2019,07,26,04,14,13.70
2019,07,26,04,15,13.70
2019,07,26,04,16,13.60
2019,07,26,04,17,13.60
2019,07,26,04,18,13.60
2019,07,26,04,19,13.60
2019,07,26,04,20,13.50
2019,07,26,04,21,13.50
2019,07,26,04,22,13.50
2019,07,26,04,23,13.50
2019,07,26,04,24,13.50
2019,07,26,04,25,13.50
2019,07,26,04,26,13.50
2019,07,26,04,27,13.40
2019,07,26,04,28,13.40
2019,07,26,04,29,13.40
2019,07,26,04,30,13.40
2019,07,26,04,31,13.40
2019,07,26,04,32,13.40
2019,07,26,04,33,13.40
2019,07,26,04,34,13.40
2019,07,26,04,35,13.40
2019,07,26,04,36,13.40
2019,07,26,04,37,13.40
2019,07,26,04,38,13.40
2019,07,26,04,39,13.40
2019,07,26,04,40,13.50
2019,07,26,04,41,13.40
2019,07,26,04,42,13.40
2019,07,26,04,43,13.40
2019,07,26,04,44,13.40
2019,07,26,04,45,13.40
2019,07,26,04,46,13.40
2019,07,26,04,47,13.40
2019,07,26,04,48,13.40
2019,07,26,04,49,13.40
2019,07,26,04,50,13.30
2019,07,26,04,51,13.30
2019,07,26,04,52,13.30
2019,07,26,04,53,13.30
2019,07,26,04,54,13.30
2019,07,26,04,55,13.30
2019,07,26,04,56,13.30
2019,07,26,04,57,13.30
2019,07,26,04,58,13.30
2019,07,26,04,59,13.40
2019,07,26,05,00,13.40
2019,07,26,05,01,13.40
2019,07,26,05,02,13.40
2019,07,26,05,03,13.40
2019,07,26,05,04,13.40
2019,07,26,05,05,13.40
2019,07,26,05,06,13.40
2019,07,26,05,07,13.40
2019,07,26,05,08,13.40
2019,07,26,05,09,13.50
2019,07,26,05,10,13.50
2019,07,26,05,11,13.60
2019,07,26,05,12,13.60
2019,07,26,05,13,13.60
2019,07,26,05,14,13.60
2019,07,26,05,15,13.60
2019,07,26,05,16,13.60
2019,07,26,05,17,13.60
2019,07,26,05,18,13.60
2019,07,26,05,19,13.60
2019,07,26,05,20,13.50
2019,07,26,05,21,13.50
2019,07,26,05,22,13.50
2019,07,26,05,23,13.50
2019,07,26,05,24,13.50
2019,07,26,05,25,13.50
2019,07,26,05,26,13.60
2019,07,26,05,27,13.60
2019,07,26,05,28,13.60
2019,07,26,05,29,13.60
2019,07,26,05,30,13.60
2019,07,26,05,31,13.60
2019,07,26,05,32,13.60
2019,07,26,05,33,13.60
2019,07,26,05,34,13.60
2019,07,26,05,35,13.60
2019,07,26,05,36,13.60
2019,07,26,05,37,13.60
2019,07,26,05,38,13.60
2019,07,26,05,39,13.60
2019,07,26,05,40,13.60
2019,07,26,05,41,13.60
2019,07,26,05,42,13.50
2019,07,26,05,43,13.50
2019,07,26,05,44,13.50
2019,07,26,05,45,13.50
2019,07,26,05,46,13.50
2019,07,26,05,47,13.50
2019,07,26,05,48,13.50
2019,07,26,05,49,13.50
2019,07,26,05,50,13.50
2019,07,26,05,51,13.50
2019,07,26,05,52,13.50
2019,07,26,05,53,13.50
2019,07,26,05,54,13.50
2019,07,26,05,55,13.60
2019,07,26,05,56,13.60
2019,07,26,05,57,13.70
2019,07,26,05,58,13.70
2019,07,26,05,59,13.70
2019,07,26,06,00,13.70
2019,07,26,06,01,13.70
2019,07,26,06,02,13.70
2019,07,26,06,03,13.70
2019,07,26,06,04,13.70
2019,07,26,06,05,13.70
2019,07,26,06,06,13.70
2019,07,26,06,07,13.70
2019,07,26,06,08,13.70
2019,07,26,06,09,13.70
2019,07,26,06,10,13.70
2019,07,26,06,11,13.60
2019,07,26,06,12,13.60
2019,07,26,06,13,13.50
2019,07,26,06,14,13.50
2019,07,26,06,15,13.50
2019,07,26,06,16,13.40
2019,07,26,06,17,13.40
2019,07,26,06,18,13.40
2019,07,26,06,19,13.40
2019,07,26,06,20,13.40
2019,07,26,06,21,13.40
2019,07,26,06,22,13.30
2019,07,26,06,23,13.40
2019,07,26,06,24,13.30
2019,07,26,06,25,13.30
2019,07,26,06,26,13.30
2019,07,26,06,27,13.30
2019,07,26,06,28,13.40
2019,07,26,06,29,13.40
2019,07,26,06,30,13.40
2019,07,26,06,31,13.40
2019,07,26,06,32,13.50
2019,07,26,06,33,13.50
2019,07,26,06,34,13.60
2019,07,26,06,35,13.60
2019,07,26,06,36,13.60
2019,07,26,06,37,13.60
2019,07,26,06,38,13.60
2019,07,26,06,39,13.60
2019,07,26,06,40,13.60
2019,07,26,06,41,13.60
2019,07,26,06,42,13.60
2019,07,26,06,43,13.60
2019,07,26,06,44,13.70
2019,07,26,06,45,13.70
2019,07,26,06,46,13.70
2019,07,26,06,47,13.70
2019,07,26,06,48,13.80
2019,07,26,06,49,13.80
2019,07,26,06,50,13.80
2019,07,26,06,51,13.90
2019,07,26,06,52,13.90
2019,07,26,06,53,13.90
2019,07,26,06,54,14.00
2019,07,26,06,55,14.00
2019,07,26,06,56,14.10
2019,07,26,06,57,14.10
2019,07,26,06,58,14.20
2019,07,26,06,59,14.20
2019,07,26,07,00,14.30
2019,07,26,07,01,14.40
2019,07,26,07,02,14.40
2019,07,26,07,03,14.50
2019,07,26,07,04,14.50
2019,07,26,07,05,14.50
2019,07,26,07,06,14.50
2019,07,26,07,07,14.60
2019,07,26,07,08,14.60
2019,07,26,07,09,14.70
2019,07,26,07,10,14.70
2019,07,26,07,11,14.80
2019,07,26,07,12,14.80
2019,07,26,07,13,14.90
2019,07,26,07,14,14.90
2019,07,26,07,15,15.00
2019,07,26,07,16,15.00
2019,07,26,07,17,15.10
2019,07,26,07,18,15.20
2019,07,26,07,19,15.20
2019,07,26,07,20,15.30
2019,07,26,07,21,15.30
2019,07,26,07,22,15.40
2019,07,26,07,23,15.50
2019,07,26,07,24,15.50
2019,07,26,07,25,15.60
2019,07,26,07,26,15.60
2019,07,26,07,27,15.70
2019,07,26,07,28,15.80
2019,07,26,07,29,16.00
2019,07,26,07,30,16.10
2019,07,26,07,31,16.20
2019,07,26,07,32,16.30
2019,07,26,07,33,16.40
2019,07,26,07,34,16.50
2019,07,26,07,35,16.60
2019,07,26,07,36,16.70
2019,07,26,07,37,16.80
2019,07,26,07,38,17.00
2019,07,26,07,39,17.10
2019,07,26,07,40,17.20
2019,07,26,07,41,17.30
2019,07,26,07,42,17.30
2019,07,26,07,43,17.40
2019,07,26,07,44,17.40
2019,07,26,07,45,17.40
2019,07,26,07,46,17.40
2019,07,26,07,47,17.40
2019,07,26,07,48,17.40
2019,07,26,07,49,17.50
2019,07,26,07,50,17.50
2019,07,26,07,51,17.60
2019,07,26,07,52,17.70
2019,07,26,07,53,17.70
2019,07,26,07,54,17.70
2019,07,26,07,55,17.80
2019,07,26,07,56,17.80
2019,07,26,07,57,17.90
2019,07,26,07,58,17.90
2019,07,26,07,59,17.90
2019,07,26,08,00,17.80
2019,07,26,08,01,17.80
2019,07,26,08,02,17.80
2019,07,26,08,03,17.80
2019,07,26,08,04,17.80
2019,07,26,08,05,17.80
2019,07,26,08,06,17.80
2019,07,26,08,07,17.80
2019,07,26,08,08,17.80
2019,07,26,08,09,17.80
2019,07,26,08,10,17.80
2019,07,26,08,11,17.80
2019,07,26,08,12,17.80
2019,07,26,08,13,17.90
2019,07,26,08,14,17.90
2019,07,26,08,15,17.90
2019,07,26,08,16,17.90
2019,07,26,08,17,17.70
2019,07,26,08,18,17.40
2019,07,26,08,19,17.00
2019,07,26,08,20,16.50
2019,07,26,08,21,16.10
2019,07,26,08,22,15.80
2019,07,26,08,23,15.50
2019,07,26,08,24,15.20
2019,07,26,08,25,15.10
2019,07,26,08,26,15.00
2019,07,26,08,27,14.90
2019,07,26,08,28,14.80
2019,07,26,08,29,14.80
2019,07,26,08,30,14.80
2019,07,26,08,31,14.80
2019,07,26,08,32,14.90
2019,07,26,08,33,14.90
2019,07,26,08,34,15.00
2019,07,26,08,35,15.10
2019,07,26,08,36,15.10
2019,07,26,08,37,15.20
2019,07,26,08,38,15.20
2019,07,26,08,39,15.30
2019,07,26,08,40,15.30
2019,07,26,08,41,15.40
2019,07,26,08,42,15.40
2019,07,26,08,43,15.50
2019,07,26,08,44,15.60
2019,07,26,08,45,15.70
2019,07,26,08,46,15.70
2019,07,26,08,47,15.80
2019,07,26,08,48,15.80
2019,07,26,08,49,15.80
2019,07,26,08,50,15.70
2019,07,26,08,51,15.70
2019,07,26,08,52,15.70
2019,07,26,08,53,15.70
2019,07,26,08,54,15.80
2019,07,26,08,55,15.80
2019,07,26,08,56,15.80
2019,07,26,08,57,15.80
2019,07,26,08,58,15.80
2019,07,26,08,59,15.80
2019,07,26,09,00,15.90
2019,07,26,09,01,15.90
2019,07,26,09,02,15.90
2019,07,26,09,03,15.90
2019,07,26,09,04,15.90
2019,07,26,09,05,15.90
2019,07,26,09,06,15.90
2019,07,26,09,07,15.90
2019,07,26,09,08,15.90
2019,07,26,09,09,16.00
2019,07,26,09,10,16.10
2019,07,26,09,11,16.10
2019,07,26,09,12,16.10
2019,07,26,09,13,16.20
2019,07,26,09,14,16.30
2019,07,26,09,15,16.40
2019,07,26,09,16,16.50
2019,07,26,09,17,16.60
2019,07,26,09,18,16.70
2019,07,26,09,19,16.80
2019,07,26,09,20,17.00
2019,07,26,09,21,17.10
2019,07,26,09,22,17.20
2019,07,26,09,23,17.30
2019,07,26,09,24,17.40
2019,07,26,09,25,17.30
2019,07,26,09,26,17.30
2019,07,26,09,27,17.20
2019,07,26,09,28,17.00
2019,07,26,09,29,16.70
2019,07,26,09,30,16.30
2019,07,26,09,31,15.90
2019,07,26,09,32,15.80
2019,07,26,09,33,15.70
2019,07,26,09,34,15.60
2019,07,26,09,35,15.50
2019,07,26,09,36,15.40
2019,07,26,09,37,15.50
2019,07,26,09,38,15.60
2019,07,26,09,39,15.60
2019,07,26,09,40,15.50
2019,07,26,09,41,15.60
2019,07,26,09,42,15.70
2019,07,26,09,43,15.70
2019,07,26,09,44,15.70
2019,07,26,09,45,15.70
2019,07,26,09,46,15.70
2019,07,26,09,47,15.70
2019,07,26,09,48,15.80
2019,07,26,09,49,15.80
2019,07,26,09,50,15.90
2019,07,26,09,51,15.90
2019,07,26,09,52,15.90
2019,07,26,09,53,15.90
2019,07,26,09,54,16.00
2019,07,26,09,55,16.10
2019,07,26,09,56,16.20
2019,07,26,09,57,16.30
2019,07,26,09,58,16.50
2019,07,26,09,59,16.70
2019,07,26,10,00,16.80
2019,07,26,10,01,16.90
2019,07,26,10,02,16.90
2019,07,26,10,03,17.00
2019,07,26,10,04,17.00
2019,07,26,10,05,17.10
2019,07,26,10,06,17.10
2019,07,26,10,07,17.10
2019,07,26,10,08,17.00
2019,07,26,10,09,16.90
2019,07,26,10,10,17.00
2019,07,26,10,11,17.00
2019,07,26,10,12,17.10
2019,07,26,10,13,17.20
2019,07,26,10,14,17.40
2019,07,26,10,15,17.60
2019,07,26,10,16,17.80
2019,07,26,10,17,18.00
2019,07,26,10,18,18.10
2019,07,26,10,19,18.20
2019,07,26,10,20,18.30
2019,07,26,10,21,18.40
2019,07,26,10,22,18.40
2019,07,26,10,23,18.40
2019,07,26,10,24,18.40
2019,07,26,10,25,18.40
2019,07,26,10,26,18.40
2019,07,26,10,27,18.40
2019,07,26,10,28,18.40
2019,07,26,10,29,18.40
2019,07,26,10,30,18.40
2019,07,26,10,31,18.30
2019,07,26,10,32,18.20
2019,07,26,10,33,18.30
2019,07,26,10,34,18.30
2019,07,26,10,35,18.30
2019,07,26,10,36,18.30
2019,07,26,10,37,18.10
2019,07,26,10,38,17.90
2019,07,26,10,39,17.70
2019,07,26,10,40,17.50
2019,07,26,10,41,17.30
2019,07,26,10,42,17.20
2019,07,26,10,43,17.00
2019,07,26,10,44,16.90
2019,07,26,10,45,16.80
2019,07,26,10,46,16.70
2019,07,26,10,47,16.70
2019,07,26,10,48,16.70
2019,07,26,10,49,16.70
2019,07,26,10,50,16.70
2019,07,26,10,51,16.80
2019,07,26,10,52,16.80
2019,07,26,10,53,16.80
2019,07,26,10,54,16.80
2019,07,26,10,55,16.80
2019,07,26,10,56,17.00
2019,07,26,10,57,17.10
2019,07,26,10,58,17.30
2019,07,26,10,59,17.40
2019,07,26,11,00,17.70
2019,07,26,11,01,17.80
2019,07,26,11,02,18.00
2019,07,26,11,03,18.20
2019,07,26,11,04,18.30
2019,07,26,11,05,18.40
2019,07,26,11,06,18.60
2019,07,26,11,07,18.80
2019,07,26,11,08,19.00
2019,07,26,11,09,19.10
2019,07,26,11,10,19.10
2019,07,26,11,11,19.20
2019,07,26,11,12,19.30
2019,07,26,11,13,19.30
2019,07,26,11,14,19.30
2019,07,26,11,15,19.20
2019,07,26,11,16,19.10
2019,07,26,11,17,19.10
2019,07,26,11,18,19.00
2019,07,26,11,19,18.90
2019,07,26,11,20,18.90
2019,07,26,11,21,18.90
2019,07,26,11,22,19.00
2019,07,26,11,23,19.10
2019,07,26,11,24,19.20
2019,07,26,11,25,19.30
2019,07,26,11,26,19.50
2019,07,26,11,27,19.60
2019,07,26,11,28,19.70
2019,07,26,11,29,19.80
2019,07,26,11,30,19.70
2019,07,26,11,31,19.60
2019,07,26,11,32,19.50
2019,07,26,11,33,19.40
2019,07,26,11,34,19.40
2019,07,26,11,35,19.40
2019,07,26,11,36,19.30
2019,07,26,11,37,19.20
2019,07,26,11,38,19.20
2019,07,26,11,39,19.20
2019,07,26,11,40,19.30
2019,07,26,11,41,19.50
2019,07,26,11,42,19.70
2019,07,26,11,43,19.80
2019,07,26,11,44,20.00
2019,07,26,11,45,20.10
2019,07,26,11,46,20.10
2019,07,26,11,47,20.10
2019,07,26,11,48,20.10
2019,07,26,11,49,20.20
2019,07,26,11,50,20.10
2019,07,26,11,51,19.90
2019,07,26,11,52,19.70
2019,07,26,11,53,19.50
2019,07,26,11,54,19.40
2019,07,26,11,55,19.40
2019,07,26,11,56,19.40
2019,07,26,11,57,19.60
2019,07,26,11,58,19.70
2019,07,26,11,59,19.80
2019,07,26,12,00,19.80
2019,07,26,12,01,19.90
2019,07,26,12,02,19.90
2019,07,26,12,03,20.00
2019,07,26,12,04,20.10
2019,07,26,12,05,20.30
2019,07,26,12,06,20.30
2019,07,26,12,07,20.30
2019,07,26,12,08,20.20
2019,07,26,12,09,20.10
2019,07,26,12,10,20.00
2019,07,26,12,11,19.90
2019,07,26,12,12,20.00
2019,07,26,12,13,20.00
2019,07,26,12,14,20.10
2019,07,26,12,15,20.10
2019,07,26,12,16,20.10
2019,07,26,12,17,20.20
2019,07,26,12,18,20.30
2019,07,26,12,19,20.30
2019,07,26,12,20,20.30
2019,07,26,12,21,20.40
2019,07,26,12,22,20.40
2019,07,26,12,23,20.30
2019,07,26,12,24,20.40
2019,07,26,12,25,20.50
2019,07,26,12,26,20.60
2019,07,26,12,27,20.70
2019,07,26,12,28,20.80
2019,07,26,12,29,20.80
2019,07,26,12,30,20.90
2019,07,26,12,31,21.10
2019,07,26,12,32,21.10
2019,07,26,12,33,21.10
2019,07,26,12,34,21.10
2019,07,26,12,35,21.20
2019,07,26,12,36,21.10
2019,07,26,12,37,21.10
2019,07,26,12,38,21.10
2019,07,26,12,39,20.90
2019,07,26,12,40,20.80
2019,07,26,12,41,20.60
2019,07,26,12,42,20.60
2019,07,26,12,43,20.70
2019,07,26,12,44,20.90
2019,07,26,12,45,21.00
2019,07,26,12,46,21.10
2019,07,26,12,47,21.10
2019,07,26,12,48,21.10
2019,07,26,12,49,21.10
2019,07,26,12,50,21.20
2019,07,26,12,51,21.30
2019,07,26,12,52,21.30
2019,07,26,12,53,21.20
2019,07,26,12,54,21.10
2019,07,26,12,55,20.90
2019,07,26,12,56,20.80
2019,07,26,12,57,20.60
2019,07,26,12,58,20.50
2019,07,26,12,59,20.40
2019,07,26,13,00,20.40
2019,07,26,13,01,20.40
2019,07,26,13,02,20.40
2019,07,26,13,03,20.50
2019,07,26,13,04,20.50
2019,07,26,13,05,20.60
2019,07,26,13,06,20.70
2019,07,26,13,07,20.70
2019,07,26,13,08,20.70
2019,07,26,13,09,20.70
2019,07,26,13,10,20.60
2019,07,26,13,11,20.60
2019,07,26,13,12,20.60
2019,07,26,13,13,20.40
2019,07,26,13,14,20.30
2019,07,26,13,15,20.10
2019,07,26,13,16,19.80
2019,07,26,13,17,19.50
2019,07,26,13,18,19.10
2019,07,26,13,19,18.80
2019,07,26,13,20,18.50
2019,07,26,13,21,18.20
2019,07,26,13,22,18.10
2019,07,26,13,23,17.90
2019,07,26,13,24,17.90
2019,07,26,13,25,18.00
2019,07,26,13,26,18.00
2019,07,26,13,27,18.20
2019,07,26,13,28,18.30
2019,07,26,13,29,18.40
2019,07,26,13,30,18.50
2019,07,26,13,31,18.60
2019,07,26,13,32,18.70
2019,07,26,13,33,18.80
2019,07,26,13,34,18.90
2019,07,26,13,35,19.00
2019,07,26,13,36,19.00
2019,07,26,13,37,18.90
2019,07,26,13,38,18.90
2019,07,26,13,39,18.70
2019,07,26,13,40,18.60
2019,07,26,13,41,18.60
2019,07,26,13,42,18.70
2019,07,26,13,43,18.80
2019,07,26,13,44,18.80
2019,07,26,13,45,18.90
2019,07,26,13,46,19.00
2019,07,26,13,47,18.90
2019,07,26,13,48,18.80
2019,07,26,13,49,18.70
2019,07,26,13,50,18.60
2019,07,26,13,51,18.40
2019,07,26,13,52,18.20
2019,07,26,13,53,18.10
2019,07,26,13,54,18.00
2019,07,26,13,55,18.00
2019,07,26,13,56,17.90
2019,07,26,13,57,17.90
2019,07,26,13,58,17.90
2019,07,26,13,59,17.90
2019,07,26,14,00,18.00
2019,07,26,14,01,18.00
2019,07,26,14,02,18.00
2019,07,26,14,03,18.00
2019,07,26,14,04,18.00
2019,07,26,14,05,17.90
2019,07,26,14,06,17.70
2019,07,26,14,07,17.50
2019,07,26,14,08,17.40
2019,07,26,14,09,17.40
2019,07,26,14,10,17.40
2019,07,26,14,11,17.50
2019,07,26,14,12,17.50
2019,07,26,14,13,17.50
2019,07,26,14,14,17.60
2019,07,26,14,15,17.60
2019,07,26,14,16,17.60
2019,07,26,14,17,17.50
2019,07,26,14,18,17.50
2019,07,26,14,19,17.40
2019,07,26,14,20,17.40
2019,07,26,14,21,17.50
2019,07,26,14,22,17.60
2019,07,26,14,23,17.70
2019,07,26,14,24,17.80
2019,07,26,14,25,18.00
2019,07,26,14,26,18.10
2019,07,26,14,27,18.30
2019,07,26,14,28,18.40
2019,07,26,14,29,18.60
2019,07,26,14,30,18.70
2019,07,26,14,31,18.80
2019,07,26,14,32,18.90
2019,07,26,14,33,19.00
2019,07,26,14,34,19.20
2019,07,26,14,35,19.30
2019,07,26,14,36,19.50
2019,07,26,14,37,19.60
2019,07,26,14,38,19.70
2019,07,26,14,39,19.70
2019,07,26,14,40,19.70
2019,07,26,14,41,19.70
2019,07,26,14,42,19.80
2019,07,26,14,43,19.80
2019,07,26,14,44,19.90
2019,07,26,14,45,20.00
2019,07,26,14,46,20.10
2019,07,26,14,47,20.10
2019,07,26,14,48,20.20
2019,07,26,14,49,20.20
2019,07,26,14,50,20.20
2019,07,26,14,51,20.20
2019,07,26,14,52,20.30
2019,07,26,14,53,20.40
2019,07,26,14,54,20.40
2019,07,26,14,55,20.40
2019,07,26,14,56,20.30
2019,07,26,14,57,20.10
2019,07,26,14,58,20.10
2019,07,26,14,59,20.10
2019,07,26,15,00,20.10
2019,07,26,15,01,20.10
2019,07,26,15,02,20.20
2019,07,26,15,03,20.30
2019,07,26,15,04,20.40
2019,07,26,15,05,20.60
2019,07,26,15,06,20.70
2019,07,26,15,07,20.90
2019,07,26,15,08,21.00
2019,07,26,15,09,21.00
2019,07,26,15,10,21.10
2019,07,26,15,11,21.10
2019,07,26,15,12,21.00
2019,07,26,15,13,21.00
2019,07,26,15,14,21.10
2019,07,26,15,15,21.10
2019,07,26,15,16,21.20
2019,07,26,15,17,21.30
2019,07,26,15,18,21.40
2019,07,26,15,19,21.60
2019,07,26,15,20,21.70
2019,07,26,15,21,21.70
2019,07,26,15,22,21.70
2019,07,26,15,23,21.60
2019,07,26,15,24,21.50
2019,07,26,15,25,21.50
2019,07,26,15,26,21.40
2019,07,26,15,27,21.20
2019,07,26,15,28,21.00
2019,07,26,15,29,20.80
2019,07,26,15,30,20.70
2019,07,26,15,31,20.60
2019,07,26,15,32,20.60
2019,07,26,15,33,20.70
2019,07,26,15,34,20.80
2019,07,26,15,35,20.80
2019,07,26,15,36,20.90
2019,07,26,15,37,20.90
2019,07,26,15,38,21.00
2019,07,26,15,39,21.00
2019,07,26,15,40,20.90
2019,07,26,15,41,20.90
2019,07,26,15,42,20.80
2019,07,26,15,43,20.80
2019,07,26,15,44,20.80
2019,07,26,15,45,20.90
2019,07,26,15,46,20.90
2019,07,26,15,47,20.90
2019,07,26,15,48,20.90
2019,07,26,15,49,20.80
2019,07,26,15,50,20.70
2019,07,26,15,51,20.50
2019,07,26,15,52,20.40
2019,07,26,15,53,20.30
2019,07,26,15,54,20.30
2019,07,26,15,55,20.40
2019,07,26,15,56,20.50
2019,07,26,15,57,20.60
2019,07,26,15,58,20.80
2019,07,26,15,59,20.90
2019,07,26,16,00,21.10
2019,07,26,16,01,21.30
2019,07,26,16,02,21.50
2019,07,26,16,03,21.70
2019,07,26,16,04,22.00
2019,07,26,16,05,22.20
2019,07,26,16,06,22.30
2019,07,26,16,07,22.30
2019,07,26,16,08,22.30
2019,07,26,16,09,22.10
2019,07,26,16,10,22.00
2019,07,26,16,11,22.00
2019,07,26,16,12,22.00
2019,07,26,16,13,22.00
2019,07,26,16,14,22.00
2019,07,26,16,15,22.00
2019,07,26,16,16,22.00
2019,07,26,16,17,22.00
2019,07,26,16,18,21.90
2019,07,26,16,19,22.00
2019,07,26,16,20,22.00
2019,07,26,16,21,22.00
2019,07,26,16,22,22.10
2019,07,26,16,23,22.10
2019,07,26,16,24,22.20
2019,07,26,16,25,22.30
2019,07,26,16,26,22.50
2019,07,26,16,27,22.60
2019,07,26,16,28,22.70
2019,07,26,16,29,22.80
2019,07,26,16,30,22.90
2019,07,26,16,31,23.00
2019,07,26,16,32,23.10
2019,07,26,16,33,23.20
2019,07,26,16,34,23.40
2019,07,26,16,35,23.50
2019,07,26,16,36,23.60
2019,07,26,16,37,23.70
2019,07,26,16,38,23.80
2019,07,26,16,39,24.00
2019,07,26,16,40,24.10
2019,07,26,16,41,24.20
2019,07,26,16,42,24.30
2019,07,26,16,43,24.30
2019,07,26,16,44,24.40
2019,07,26,16,45,24.50
2019,07,26,16,46,24.60
2019,07,26,16,47,24.70
2019,07,26,16,48,24.80
2019,07,26,16,49,24.90
2019,07,26,16,50,25.00
2019,07,26,16,51,25.20
2019,07,26,16,52,25.30
2019,07,26,16,53,25.50
2019,07,26,16,54,25.60
2019,07,26,16,55,25.70
2019,07,26,16,56,25.80
2019,07,26,16,57,25.90
2019,07,26,16,58,26.00
2019,07,26,16,59,26.10
2019,07,26,17,00,26.20
2019,07,26,17,01,26.30
2019,07,26,17,02,26.20
2019,07,26,17,03,26.20
2019,07,26,17,04,26.10
2019,07,26,17,05,26.00
2019,07,26,17,06,26.00
2019,07,26,17,07,25.90
2019,07,26,17,08,25.90
2019,07,26,17,09,25.80
2019,07,26,17,10,25.80
2019,07,26,17,11,25.80
2019,07,26,17,12,25.80
2019,07,26,17,13,25.80
2019,07,26,17,14,25.80
2019,07,26,17,15,25.80
2019,07,26,17,16,25.80
2019,07,26,17,17,25.80
2019,07,26,17,18,25.80
2019,07,26,17,19,25.80